Header for Extended Forecast Station List Page

Search by: ID | Name | Date | Parm | Value | Avg | % Avg
Sort by: ID | Name | Date | Parm | Value | Avg | % Avg

Enter search or view all records.

Click on id for station plot
#IDNameDateParmValueAvg% Avg
0ABOM8CLARK FORK-ABOVE MISSOULA03-30-2020DISCHARGE (KAF)1308138195
1AFRI1SNAKE-AMERICAN FALLS RESERVOIR03-30-2020INFLOW (KAF)28542348122
2ALFW1PEND OREILLE-ALBENI FALLS DAM03-30-2020INFLOW (KAF)94731074388
3ALPW4SNAKE-NEAR ALPINE03-30-2020DISCHARGE (KAF)21451925111
4ANAW1SNAKE-NEAR ANATONE03-30-2020DISCHARGE (KAF)95871292774
5ANTI1HENRYS FORK-AT ST. ANTHONY03-30-2020DISCHARGE (KAF)58961396
6ARAI1SF BOISE-ANDERSON RANCH DAM03-30-2020INFLOW (KAF)31249663
7ARDW1ENTIAT-NEAR ARDENVOIR03-30-2020DISCHARGE (KAF)16719088
8BELM8CLARK FORK-BELOW MISSOULA03-30-2020DISCHARGE (KAF)2383261091
9BERO3MALHEUR-AGENCY VALLEY DAM03-30-2020INFLOW (KAF)364091
10BFEI1KOOTENAI-AT BONNERS FERRY03-30-2020STAGE (FT)MMM
11BFTI1SNAKE-NEAR BLACKFOOT03-30-2020DISCHARGE (KAF)23641721137
12BIGI1BOISE-AT GLENWOOD BRIDGE03-30-2020DISCHARGE (KAF)38543489
13BITM8BITTERROOT-NEAR MISSOULA03-30-2020DISCHARGE (KAF)1075119190
14BONM8BLACKFOOT-NEAR BONNER03-30-2020DISCHARGE (KAF)796777102
15BONO3COLUMBIA-BONNEVILLE DAM03-30-2020INFLOW (KAF)512466020485
16BRNI1SNAKE-BROWNLEE DAM03-30-2020INFLOW (KAF)4585519488
17BUDW1BUMPING-BUMPING LAKE DAM03-30-2020INFLOW (KAF)122110111
18BULO3BULLY CREEK-BULLY CREEK DAM03-30-2020INFLOW (KAF)3379
19CABI1CLARK FORK-CABINET GORGE DAM03-30-2020INFLOW (KAF)8275916690
20CFMM8FLATHEAD-AT COLUMBIA FALLS03-30-2020DISCHARGE (KAF)46844061115
21CHDW1CHELAN-LAKE CHELAN DAM03-30-2020INFLOW (KAF)88695193
22CHEI1FALL RIVER-NEAR CHESTER03-30-2020DISCHARGE (KAF)317315101
23CHJW1COLUMBIA-CHIEF JOSEPH DAM03-30-2020INFLOW (KAF)278233082790
24CIBW1COLUMBIA-AT INTL BOUNDARY03-30-2020DISCHARGE (KAF)26944MM
25CLFW1NACHES-NEAR CLIFFDEL03-30-2020DISCHARGE (KAF)398349114
26CLUW1CLE ELUM-CLE ELUM LAKE03-30-2020INFLOW (KAF)380367104
27COEI1COEUR D ALENE-COEUR D ALENE LAKE03-30-2020INFLOW (KAF)2326252092
28CSDI1NF PAYETTE-CASCADE DAM03-30-2020INFLOW (KAF)36147676
29DEDI1DEADWOOD-NEAR LOWMAN03-30-2020INFLOW (KAF)9212872
30DLGM8CLARK FORK-AT DEER LODGE03-30-2020DISCHARGE (KAF)728091
31DRMM8CLARK FORK-NR DRUMMOND03-30-2020DISCHARGE (KAF)234MM
32DWRI1NF CLEARWATER-DWORSHAK DAM03-30-2020INFLOW (KAF)2303260588
33EASW1YAKIMA-AT EASTON03-30-2020DISCHARGE (KAF)10394110
34EMMI1PAYETTE-NEAR EMMETT03-30-2020DISCHARGE (KAF)673118157
35FCFM8NF FLATHEAD-NEAR COLUMBIA FALLS03-30-2020DISCHARGE (KAF)1520154498
36GCDW1COLUMBIA-GRAND COULEE DAM03-30-2020INFLOW (KAF)315663993379
37GIBO3UMATILLA-NEAR GIBBON03-30-2020DISCHARGE (KAF)7866118
38HALI1BIG WOOD-AT HAILEY03-30-2020DISCHARGE (KAF)12922258
39HEII1SNAKE-NEAR HEISE03-30-2020DISCHARGE (KAF)36572810130
40HHWM8SF FLATHEAD-HUNGRY HORSE DAM03-30-2020INFLOW (KAF)19451880103
41HODO3HOOD-NEAR TUCKER BRIDGE03-30-2020DISCHARGE (KAF)18421685
42HOPI1PEND OREILLE-PEND OREILLE LAKE NR HOPE03-30-2020LAKE ELEVATION (FT)MMM
43HOTI1BRUNEAU-NEAR HOT SPRINGS03-30-2020DISCHARGE (KAF)14417582
44HWRI1BIG LOST-AT HOWELL RANCH NEAR CHILLY03-30-2020DISCHARGE (KAF)8915358
45IHDW1SNAKE-ICE HARBOR DAM03-30-2020INFLOW (KAF)156271968379
46IPDI1HENRYS FORK-ISLAND PARK DAM03-30-2020INFLOW (KAF)19620098
47JDAO3COLUMBIA-JOHN DAY DAM03-30-2020INFLOW (KAF)502256470578
48JKSW4SNAKE-NEAR JACKSON03-30-2020DISCHARGE (KAF)17261480117
49JLKW4SNAKE-JACKSON LAKE AT DAM03-30-2020INFLOW (KAF)67273691
50KADW1KACHESS-KACHESS DAM03-30-2020INFLOW (KAF)9810097
51KEDW1YAKIMA-KEECHELUS LAKE03-30-2020INFLOW (KAF)112108104
52KERM8FLATHEAD-KERR DAM03-30-2020INFLOW (KAF)52615079104
53KIOW1YAKIMA-AT KIONA03-30-2020DISCHARGE (KAF)76784691
54LAUW1KETTLE-AT LAURIER03-30-2020DISCHARGE (KAF)21181702124
55LEOI1KOOTENAI-AT LEONIA03-30-2020DISCHARGE (KAF)3722507373
56LGDW1SNAKE-LOWER GRANITE DAM03-30-2020INFLOW (KAF)155591970479
57LGSW1SNAKE-LITTLE GOOSE DAM03-30-2020INFLOW (KAF)155591970379
58LLKW1SPOKANE-AT LONGLAKE03-30-2020INFLOW (KAF)2438299981
59LMNW1SNAKE-LOWER MONUMENTAL DAM03-30-2020INFLOW (KAF)156261981679
60LUCI1BOISE-LUCKY PEAK DAM03-30-2020INFLOW (KAF)1128MM
61LWRI1LITTLE WOOD-LITTLE WOOD DAM03-30-2020INFLOW (KAF)377449
62LYDM8KOOTENAI-LIBBY DAM03-30-2020INFLOW (KAF)4951551090
63MACI1BIG LOST-MACKAY RESERVOIR NEAR MACKAY03-30-2020INFLOW (KAF)8015352
64MAGI1BIG WOOD-MAGIC DAM03-30-2020INFLOW (KAF)9323739
65MCDW1COLUMBIA-MCNARY DAM03-30-2020INFLOW (KAF)483026263877
66MILI1SNAKE-AT MILNER03-30-2020DISCHARGE (KAF)988411240
67MODO3DESCHUTES-AT MOODY NR BIGGS03-30-2020DISCHARGE (KAF)1232136191
68MONO3NF JOHN DAY-AT MONUMENT03-30-2020DISCHARGE (KAF)542536101
69MYKO3MCKAY CREEK-NEAR PILOT ROCK03-30-2020DISCHARGE (KAF)172183
70NACW1NACHES-NEAR NACHES03-30-2020DISCHARGE (KAF)575471122
71NOXM8CLARK FORK-NOXON RAPIDS DAM03-30-2020INFLOW (KAF)7527867587
72ORFI1CLEARWATER-AT OROFINO03-30-2020DISCHARGE (KAF)44894444101
73OWYO3OWYHEE-OWYHEE DAM03-30-2020INFLOW (KAF)16629456
74PARI1BOISE-NEAR PARMA03-30-2020DISCHARGE (KAF)35041385
75PARW1YAKIMA-NEAR PARKER03-30-2020DISCHARGE (KAF)524471111
76PATW1METHOW-NEAR PATEROS03-30-2020DISCHARGE (KAF)76681894
77PDTO3UMATILLA-AT PENDLETON03-30-2020DISCHARGE (KAF)159131122
78PESW1WENATCHEE-AT PESHASTIN03-30-2020DISCHARGE (KAF)1214137788
79PIHI1PORTNEUF-AT POCATELLO03-30-2020DISCHARGE (KAF)667984
80PITW1KLICKITAT-NEAR PITT03-30-2020DISCHARGE (KAF)36546778
81PLDI1SF SNAKE-PALISADES DAM03-30-2020INFLOW (KAF)30562796109
82PRTI1PRIEST-NEAR PRIEST RIVER03-30-2020DISCHARGE (KAF)70876592
83PRWW1COLUMBIA-PRIEST RAPIDS DAM03-30-2020INFLOW (KAF)318024112577
84RCCM8ROCK CREEK-NEAR CLINTON03-30-2020DISCHARGE (KAF)22724891
85REXI1HENRYS FORK-AT REXBURG03-30-2020DISCHARGE (KAF)69071397
86RIDI1WILLOW CREEK-RIRIE DAM03-30-2020INFLOW (KAF)5742135
87RILW1TIETON-RIMROCK LAKE NEAR RIMROCK03-30-2020INFLOW (KAF)197185106
88RRHW1COLUMBIA-ROCKY REACH DAM03-30-2020INFLOW (KAF)304943397290
89SATI1ST MARIES-NEAR SANTA03-30-2020DISCHARGE (KAF)12112994
90SERO3JOHN DAY-AT SERVICE CK03-30-2020DISCHARGE (KAF)71675595
91SHYI1SNAKE-NEAR SHELLEY03-30-2020DISCHARGE (KAF)29172234131
92SIFI1SNAKE-AB EAGLE ROCK NR IDAHO FALLS03-30-2020DISCHARGE (KAF)31242379131
93SJMI1ST JOE-AT ST MARIES03-30-2020STAGE (FT)MMM
94SNAI1SNAKE-AT BLACKFOOT03-30-2020DISCHARGE (KAF)24121804134
95SPDI1CLEARWATER-AT SPALDING03-30-2020DISCHARGE (KAF)5972672389
96SPOW1SPOKANE-AT SPOKANE03-30-2020DISCHARGE (KAF)2230MM
97SRGM8CLARK FORK-AT ST REGIS03-30-2020DISCHARGE (KAF)2899349483
98STRM8ST. REGIS-NEAR ST. REGIS03-30-2020DISCHARGE (KAF)20424783
99SWAI1SNAKE-BELOW SWAN FALLS03-30-2020DISCHARGE (KAF)26152382110
100TCHW1WALLA WALLA-NEAR TOUCHET03-30-2020DISCHARGE (KAF)139113122
101TDAO3COLUMBIA-THE DALLES DAM03-30-2020INFLOW (KAF)504455827387
102TEAI1TETON-NEAR ST. ANTHONY03-30-2020DISCHARGE (KAF)362329110
103TNAW1TEANAWAY-BELOW FORKS03-30-2020DISCHARGE (KAF)116114102
104TONW1OKANOGAN-NEAR TONASKET03-30-2020DISCHARGE (KAF)1252140789
105TRYO3GRANDE RONDE-TROY03-30-2020DISCHARGE (KAF)13381204111
106UMAO3UMATILLA-NEAR UMATILLA03-30-2020DISCHARGE (KAF)12983156
107UMTW1YAKIMA-AT UMTANUM03-30-2020DISCHARGE (KAF)758755100
108UNDW1WHITE SALMON-NEAR UNDERWOOD03-30-2020DISCHARGE (KAF)25131480
109WANW1COLUMBIA-WANAPUM DAM03-30-2020INFLOW (KAF)318064034879
110WEII1SNAKE-AT WEISER03-30-2020DISCHARGE (KAF)4199479788
111WELW1COLUMBIA-WELLS DAM03-30-2020INFLOW (KAF)298383346089
112WGCM8MF FLATHEAD-NEAR WEST GLACIER03-30-2020DISCHARGE (KAF)16491508109
113WHBI1SALMON-AT WHITEBIRD03-30-2020DISCHARGE (KAF)3963553972
114WRMO3MALHEUR-WARM SPRINGS DAM03-30-2020INFLOW (KAF)4739121
115WSRI1WEISER-NEAR WEISER03-30-2020DISCHARGE (KAF)24835869